Location: Oshawa
(43.9000°N, 78.8670°W)
Time: 09:45:14
(UTC-04:00)

Cosmos 1805 Rocket - Visible Passes

Search period start: 01 September 2014 00:00
Search period end: 11 September 2014 00:00
Orbit: 608 x 631 km, 82.5° (Epoch: 31 August)

Date Brightness Start Highest point End Pass type
(mag) Time Alt. Az. Time Alt. Az. Time Alt. Az.
01 Sep 6.5 00:13:40 10° NW 00:14:21 12° WNW 00:14:21 12° WNW visible
01 Sep 4.7 22:51:50 10° N 22:54:44 40° NNW 22:54:44 40° NNW visible
02 Sep 5.3 21:32:39 10° NNE 21:35:08 18° ENE 21:35:08 18° ENE visible
02 Sep 5.2 23:09:36 10° NNW 23:12:18 32° NW 23:12:18 32° NW visible
03 Sep 4.7 21:49:33 10° NNE 21:52:43 29° NE 21:52:43 29° NE visible
03 Sep 5.9 23:27:41 10° NW 23:29:53 21° WNW 23:29:53 21° WNW visible
04 Sep 4.1 22:06:51 10° N 22:10:19 47° NE 22:10:19 47° NE visible
04 Sep 6.4 23:46:27 10° NW 23:47:30 12° WNW 23:47:30 12° WNW visible
05 Sep 5.7 20:49:14 10° NE 20:50:19 11° ENE 20:50:46 11° ENE visible
05 Sep 4.1 22:24:24 10° NNW 22:27:57 56° NNW 22:27:57 56° NNW visible
06 Sep 5.1 21:05:05 10° NNE 21:08:14 19° ENE 21:08:25 19° ENE visible
06 Sep 4.9 22:42:12 10° NNW 22:45:35 37° WNW 22:45:35 37° WNW visible
07 Sep 4.3 21:22:03 10° N 21:26:03 33° ENE 21:26:05 33° ENE visible
07 Sep 5.7 23:00:20 10° NW 23:03:15 22° WNW 23:03:15 22° WNW visible
08 Sep 3.5 21:39:23 10° N 21:43:45 61° E 21:43:46 61° E visible
08 Sep 6.4 23:19:17 10° WNW 23:20:57 12° W 23:20:57 12° W visible
09 Sep 5.5 20:21:23 10° NE 20:22:54 12° ENE 20:24:19 10° E visible
09 Sep 3.6 21:56:57 10° NNW 22:01:20 71° W 22:01:30 70° WSW visible
10 Sep 4.9 20:37:32 10° NNE 20:40:48 20° ENE 20:42:04 18° E visible
10 Sep 4.7 22:14:47 10° NNW 22:18:49 37° W 22:19:15 36° WSW visible
